Weather reports worldwide

Advertisment
AWG, Netherlands (6208): temperature & dewpoint: 17.10.2020 01:00:00 - 23.10.2020 01:00:00 (CEST)AWG, Netherlands (6208): wind speed & gusts: 17.10.2020 01:00:00 - 23.10.2020 01:00:00 (CEST)AWG, Netherlands (6208): wind direction: 17.10.2020 01:00:00 - 23.10.2020 01:00:00 (CEST)AWG, Netherlands (6208): reduced air pressure: 17.10.2020 01:00:00 - 23.10.2020 01:00:00 (CEST)AWG, Netherlands (6208): visibility: 17.10.2020 01:00:00 - 23.10.2020 01:00:00 (CEST)
Date & Time tt [°C] td [°C] ff [km/h] ff [kn] fx [km/h] fx [kn] dd ppp [hPa] vv [km]
23.10.2020 01:00:00 12,4 8,8 28 15 29 16 W 1009,9 10
23.10.2020 00:00:00 12,8 9,7 28 15 29 16 W 1009,6 10
22.10.2020 23:00:00 12,8 10,4 22 12 32 18 W 1009,4 10
22.10.2020 22:00:00 13,6 10,9 34 18 40 21 WSW 1008,8 10
22.10.2020 21:00:00 13,2 11,7 37 20 40 21 WSW 1008,5 4,8
22.10.2020 20:00:00 13,6 11,5 37 20 43 23 SW 1008,3 10
22.10.2020 19:00:00 13,9 11,1 37 20 43 23 SW 1008,1 10
22.10.2020 18:00:00 14,3 11,0 39 21 43 23 SSW 1007,8 10
22.10.2020 17:00:00 14,6 11,0 32 18 47 25 SSW 1007,5 21
22.10.2020 16:00:00 14,7 11,0 39 21 43 23 SW 1007,5 10
22.10.2020 15:00:00 14,7 10,9 42 23 47 25 SSW 1007,8 10
22.10.2020 14:00:00 14,8 11,0 42 23 47 25 SW 1007,9 10
22.10.2020 13:00:00 14,6 11,1 39 21 47 25 SW 1007,8 10
22.10.2020 12:00:00 14,5 11,6 35 19 43 23 SW 1007,5 9
22.10.2020 11:00:00 14,4 11,5 41 22 47 25 SSW 1007,3 10
22.10.2020 10:00:00 13,8 11,3 41 22 47 25 SSW 1007,0 10
22.10.2020 09:00:00 13,4 11,1 36 19 50 27 SSW 1005,6 18
22.10.2020 08:00:00 13,3 11,0 42 23 54 29 - 1005,2 10
22.10.2020 07:00:00 13,5 11,3 36 19 43 23 SSW 1005,1 20
22.10.2020 06:00:00 14,0 12,5 46 25 54 29 - 1004,6 10
22.10.2020 05:00:00 13,7 12,4 44 24 50 27 SSW 1004,4 10
22.10.2020 04:00:00 13,8 12,5 42 23 47 25 - 1004,3 10
22.10.2020 03:00:00 14,1 12,7 37 20 40 21 SSW 1004,1 10
22.10.2020 02:00:00 13,4 12,2 35 19 43 23 SW 1004,0 10
22.10.2020 01:00:00 14,0 12,1 39 21 47 25 W 1003,0 10
22.10.2020 00:00:00 13,9 12,2 42 23 47 25 WSW 1001,5 10
21.10.2020 23:00:00 13,8 12,6 44 24 54 29 WSW 999,3 10
21.10.2020 22:00:00 14,1 13,1 63 34 65 35 SW 997,7 10
21.10.2020 21:00:00 15,4 13,0 63 34 76 41 SW 996,6 10
21.10.2020 20:00:00 16,3 12,5 68 37 72 39 SSW 995,4 10
21.10.2020 19:00:00 16,7 13,4 52 28 65 35 SSW 994,4 10
21.10.2020 18:00:00 15,1 13,4 50 27 65 35 SSW 994,3 6
21.10.2020 17:00:00 16,1 12,1 48 26 58 31 S 993,8 10
21.10.2020 16:00:00 15,1 11,6 50 27 54 29 S 994,7 9
21.10.2020 15:00:00 13,8 12,0 44 24 50 27 S 995,7 10
21.10.2020 14:00:00 13,0 12,1 44 24 47 25 S 997,5 4,6
21.10.2020 13:00:00 12,6 11,8 42 23 47 25 S 998,6 4,1
21.10.2020 12:00:00 12,6 11,8 37 20 40 21 S 999,9 6
21.10.2020 11:00:00 12,6 11,9 32 18 40 21 S 1000,9 7
21.10.2020 10:00:00 12,8 12,0 37 20 40 21 S 1001,7 6
21.10.2020 09:00:00 13,2 12,2 39 21 40 21 S 1002,0 10
21.10.2020 08:00:00 13,5 12,3 34 18 36 19 S 1002,3 10
21.10.2020 07:00:00 13,6 12,4 34 18 36 19 S 1002,5 10
21.10.2020 06:00:00 13,7 12,5 35 19 36 19 S 1002,8 10
21.10.2020 05:00:00 13,7 12,5 34 18 36 19 S 1003,3 10
21.10.2020 04:00:00 13,8 12,4 34 18 40 21 SSW 1003,9 10
21.10.2020 03:00:00 14,1 12,4 41 22 40 21 SSW 1004,3 10
21.10.2020 02:00:00 13,8 12,4 41 22 43 23 SSW 1004,7 10
21.10.2020 01:00:00 13,3 11,9 41 22 40 21 SSW 1004,8 10
21.10.2020 00:00:00 12,9 11,4 37 20 36 19 S 1005,0 10
20.10.2020 23:00:00 12,8 11,2 39 21 36 19 SSW 1005,4 10
20.10.2020 22:00:00 12,7 10,9 37 20 43 23 S 1005,1 10
20.10.2020 21:00:00 13,1 10,9 42 23 43 23 SSW 1005,1 10
20.10.2020 20:00:00 13,0 10,8 42 23 43 23 SSW 1005,2 10
20.10.2020 19:00:00 12,8 10,5 42 23 50 27 SSW 1005,1 10
20.10.2020 18:00:00 12,6 10,1 42 23 47 25 SSW 1005,1 10
20.10.2020 17:00:00 12,5 9,7 36 19 50 27 SSW 1005,1 22
20.10.2020 16:00:00 12,1 9,1 44 24 47 25 SSW 1005,1 10
20.10.2020 15:00:00 11,4 8,5 36 19 47 25 S 1005,3 25
20.10.2020 14:00:00 11,1 7,9 36 19 43 23 S 1005,3 17
20.10.2020 13:00:00 10,6 7,4 42 23 47 25 S 1006,1 10
20.10.2020 12:00:00 10,3 6,5 46 25 47 25 S 1006,4 10
20.10.2020 11:00:00 9,8 5,9 42 23 47 25 S 1006,3 10
20.10.2020 10:00:00 8,5 5,2 41 22 43 23 S 1006,6 10
20.10.2020 09:00:00 8,3 5,0 42 23 43 23 SE 1006,6 10
20.10.2020 08:00:00 7,9 5,1 34 18 40 21 SE 1007,3 10
20.10.2020 07:00:00 7,9 5,0 41 22 43 23 SE 1008,2 10
20.10.2020 06:00:00 8,5 5,1 39 21 43 23 SE 1009,2 10
20.10.2020 05:00:00 9,0 5,3 31 17 36 19 SE 1010,6 10
20.10.2020 04:00:00 9,1 5,8 35 19 40 21 SE 1011,6 10
20.10.2020 03:00:00 8,9 6,4 39 21 40 21 SE 1012,3 10
20.10.2020 02:00:00 8,8 6,5 37 20 40 21 SE 1013,2 10
20.10.2020 01:00:00 9,0 6,8 34 18 32 18 SE 1014,0 10
20.10.2020 00:00:00 9,4 7,0 31 17 32 18 SE 1014,8 10
19.10.2020 23:00:00 9,6 7,4 31 17 32 18 S 1015,7 10
19.10.2020 22:00:00 10,1 7,7 34 18 36 19 S 1016,4 10
19.10.2020 21:00:00 10,4 7,9 34 18 32 18 S 1016,6 10
19.10.2020 20:00:00 10,6 8,4 29 16 32 18 S 1017,4 10
19.10.2020 19:00:00 10,8 8,2 31 17 36 19 S 1017,8 10
19.10.2020 18:00:00 11,0 7,2 35 19 36 19 S 1017,5 10
19.10.2020 17:00:00 11,5 6,2 31 17 32 18 S 1018,1 10
19.10.2020 16:00:00 11,6 6,7 25 14 32 18 SSW 1018,9 33
19.10.2020 15:00:00 11,4 7,3 28 15 29 16 SSW 1019,3 10
19.10.2020 14:00:00 11,5 7,8 14 8 22 12 SSW 1019,9 23
19.10.2020 13:00:00 10,5 7,9 15 8 22 12 - 1020,3 10
19.10.2020 12:00:00 10,2 7,4 16 9 22 12 SW 1020,7 10
19.10.2020 11:00:00 9,4 7,3 14 8 22 12 WSW 1020,8 12
19.10.2020 10:00:00 9,1 7,5 18 10 22 12 SW 1020,4 10
19.10.2020 09:00:00 9,2 7,7 24 13 29 16 - 1020,1 10
19.10.2020 08:00:00 9,0 7,4 22 12 29 16 SSW 1019,8 39
19.10.2020 07:00:00 9,1 8,2 18 10 25 14 SW 1019,9 10
19.10.2020 06:00:00 9,2 7,3 18 10 25 14 SSW 1020,1 10
19.10.2020 05:00:00 9,8 7,1 15 8 18 10 WSW 1020,2 10
19.10.2020 04:00:00 10,9 6,3 11 6 18 10 SW 1020,5 10
19.10.2020 03:00:00 10,7 6,4 11 6 14 8 W 1020,8 10
19.10.2020 02:00:00 11,0 5,0 16 9 18 10 W 1020,7 10
19.10.2020 01:00:00 11,3 4,5 11 6 18 10 W 1020,8 45
19.10.2020 00:00:00 11,1 4,5 16 9 32 18 WNW 1020,6 10
18.10.2020 23:00:00 11,0 5,7 22 12 29 16 NW 1020,5 10
18.10.2020 22:00:00 11,0 4,4 24 13 29 16 NW 1020,5 10
18.10.2020 21:00:00 11,4 5,0 22 12 29 16 WNW 1020,8 10
18.10.2020 20:00:00 11,5 3,7 22 12 32 18 NW 1020,6 10
18.10.2020 19:00:00 11,6 4,5 26 14 29 16 NW 1020,2 10
18.10.2020 18:00:00 11,6 5,3 26 14 29 16 WNW 1019,9 10
18.10.2020 17:00:00 11,7 4,1 26 14 29 16 WNW 1019,7 10
18.10.2020 16:00:00 11,6 4,7 22 12 29 16 NW 1020,0 23
18.10.2020 15:00:00 11,2 5,1 31 17 32 18 NW 1020,2 10
18.10.2020 14:00:00 11,3 6,1 25 14 32 18 NW 1020,2 23
18.10.2020 13:00:00 11,7 4,9 22 12 32 18 NW 1020,5 19
18.10.2020 12:00:00 11,7 6,0 28 15 43 23 NNW 1020,3 10
18.10.2020 11:00:00 11,1 8,0 24 13 32 18 WNW 1020,1 10
18.10.2020 10:00:00 10,3 7,9 37 20 40 21 NNW 1019,9 10
18.10.2020 09:00:00 11,1 7,8 36 19 43 23 NW 1019,4 44
18.10.2020 08:00:00 11,3 7,6 37 20 43 23 NW 1018,7 10
18.10.2020 07:00:00 11,0 9,2 41 22 43 23 NW 1018,8 10
18.10.2020 06:00:00 10,8 8,2 25 14 43 23 WNW 1019,1 47
18.10.2020 05:00:00 12,6 6,2 29 16 36 19 WNW 1019,0 48
18.10.2020 04:00:00 12,5 6,2 28 15 32 18 WNW 1019,4 10
18.10.2020 03:00:00 12,5 6,4 18 10 22 12 NW 1020,0 48
18.10.2020 02:00:00 11,4 9,0 15 8 18 10 W 1020,3 10
18.10.2020 01:00:00 11,0 8,9 21 11 22 12 WSW 1020,5 10
18.10.2020 00:00:00 11,1 8,6 18 10 18 10 WSW 1020,4 10
17.10.2020 23:00:00 11,1 8,9 18 10 18 10 WSW 1020,6 10
17.10.2020 22:00:00 11,0 8,6 16 9 14 8 WSW 1020,8 10
17.10.2020 21:00:00 11,0 8,4 11 6 11 6 WSW 1020,9 10
17.10.2020 20:00:00 11,5 7,5 9 5 11 6 W 1020,9 10
17.10.2020 19:00:00 11,3 8,1 8 4 7 4 W 1020,7 10
17.10.2020 18:00:00 11,3 7,5 9 5 11 6 WNW 1020,4 10
17.10.2020 17:00:00 11,2 7,5 5 3 7 4 WNW 1020,6 10
17.10.2020 16:00:00 11,4 7,0 4 2 7 4 W 1020,9 10
17.10.2020 15:00:00 11,7 8,0 5 3 11 6 SSW 1020,9 10
17.10.2020 14:00:00 11,3 7,8 9 5 11 6 S 1020,9 10
17.10.2020 13:00:00 11,1 8,4 11 6 11 6 S 1021,2 10
17.10.2020 12:00:00 10,5 8,6 8 4 11 6 SE 1021,3 10
17.10.2020 11:00:00 10,1 8,4 5 3 7 4 SSW 1021,3 10
17.10.2020 10:00:00 9,9 8,7 4 2 7 4 - 1021,3 10
17.10.2020 09:00:00 9,5 8,5 8 4 7 4 WSW 1021,0 10
17.10.2020 08:00:00 9,8 8,6 5 3 7 4 W 1020,6 10
17.10.2020 07:00:00 10,1 8,5 5 3 14 8 S 1020,7 10
17.10.2020 06:00:00 10,1 8,3 16 9 14 8 S 1020,6 10
17.10.2020 05:00:00 9,9 8,8 11 6 25 14 S 1020,8 10
17.10.2020 04:00:00 9,7 8,5 9 5 29 16 SSW 1021,0 7
17.10.2020 03:00:00 10,7 8,6 13 7 14 8 SW 1021,4 10
17.10.2020 02:00:00 11,1 8,4 13 7 14 8 W 1021,8 10
17.10.2020 01:00:00 11,1 8,1 13 7 11 6 W 1022,1 10

tt = temperature
td = dewpoint
ff = wind speed
fx = gusts
dd = wind direction
ppp = reduced air pressure
vv = visibility

Next stations